Regional Weather Roundup
Issued by NWS Nashville, TN

Home | Current Version | Previous Version | Text Only | Print | Product List | Glossary On
Versions: 1 2 3 4 5 6 7 8 9 10 11 12 13 14 15 16 17 18 19 20 21 22 23 24 25 26 27 28 29 30 31 32 33 34 35 36 37 38 39 40 41 42 43 44 45 46 47 48 49 50
000
ASUS44 KOHX 151015
RWROHX
MIDDLE TENNESSEE HOURLY WEATHER ROUNDUP
NATIONAL WEATHER SERVICE NASHVILLE TN
500 AM CDT MON SEP 15 2014

NOTE: "FAIR" INDICATES FEW OR NO CLOUDS BELOW 12,000 FEET WITH
NO SIGNIFICANT WEATHER AND/OR OBSTRUCTIONS TO VISIBILITY.

* THESE REPORTS ARE NOT UNDER NWS QUALITY CONTROL AND MAY NOT
  REPORT WEATHER SUCH AS PRECIPITATION AND FOG.


TNZ005>011-023>034-057-059-062>066-078-080-151100
...NORTHERN MIDDLE TENNESSEE...

CITY           SKY/WX    TMP DP  RH WIND       PRES   REMARKS
CLARKSVILLE    PTCLDY    54  52  93 CALM      30.18R
CROSSVILLE     FOG       64  61  90 CALM      30.22R VSB 1/2
GALLATIN         N/A     54  53  96 CALM      30.19R
LEBANON        CLEAR     53  53 100 CALM      30.17R
NASHVILLE      MOCLDY    57  55  93 CALM      30.19R
WEST NASHVILLE   N/A     54  54 100 CALM      30.18R
PORTLAND       CLEAR     52  52 100 CALM      30.17S
SMYRNA         CLEAR     55  55 100 CALM      30.20R FOG
SPARTA         CLEAR     54  54 100 CALM      30.19R
$$
TNZ056-058-060-061-075>077-079-093>097-151100
...SOUTHERN MIDDLE TENNESSEE...

CITY           SKY/WX    TMP DP  RH WIND       PRES   REMARKS
COLUMBIA       CLEAR     55  55 100 CALM      30.17S
FAYETTEVILLE     N/A     61  61 100 NE3       30.17S
LEWISBURG      CLEAR     54  53  96 CALM      30.18R
MCMINNVILLE    CLOUDY    57  57 100 CALM      30.20R VSB 1/4
MURFREESBORO   CLEAR     57  56  97 CALM      30.18R
SHELBYVILLE    CLEAR     57  57 100 CALM      30.20R
TULLAHOMA      CLEAR     57  55  94 CALM      30.20R
WINCHESTER     CLEAR     57  57 100 CALM      30.18S
$$


...KEY TO REMARKS...
VSB - VISIBILITY IN MILES
WCI - WIND CHILL INDEX
HX  - HEAT INDEX



USA.gov is the U.S. government's official web portal to all federal, state and local government web resources and services.